RYR30JT LEZL-LEPA

Flight info

Callsign RYR30JT
Flight time 1h 18m
Altitude 38000
Route MAR DCT MGA DCT RIXUR DCT UNTOS DCT ROLAS DCT TOSGA DCT RESTU DCT ALT DCT SUMMO DCT MITOS DCT BRUNO DCT RUXET
Aircraft A320/M-SDE3FGHIRWY/LB1

Departure

Time 2026-04-26 10:56
Airport Seville Airport (LEZL)

Arrival

Time 2026-04-26 12:14
Airport Palma de Mallorca Airport (LEPA)
Time Latitude Longitude Altitude Speed Heading
2026-04-26 10:01 37.42245 -5.89913 94 ft 0 kts 314°
2026-04-26 10:47 37.42237 -5.89904 95 ft 4 kts 310°
2026-04-26 10:47 37.42222 -5.89876 93 ft 4 kts 292°
2026-04-26 10:48 37.42216 -5.89844 92 ft 4 kts 267°
2026-04-26 10:48 37.42222 -5.89813 93 ft 4 kts 233°
2026-04-26 10:48 37.42228 -5.89804 92 ft 0 kts 224°
2026-04-26 10:50 37.42225 -5.89808 93 ft 4 kts 224°
2026-04-26 10:51 37.42179 -5.89863 94 ft 10 kts 224°
2026-04-26 10:51 37.42056 -5.90037 94 ft 14 kts 259°
2026-04-26 10:51 37.41996 -5.90100 97 ft 11 kts 201°
2026-04-26 10:52 37.41980 -5.90191 95 ft 18 kts 271°
2026-04-26 10:52 37.41980 -5.90410 94 ft 26 kts 269°
2026-04-26 10:52 37.41978 -5.90640 93 ft 26 kts 270°
2026-04-26 10:52 37.41978 -5.90877 91 ft 28 kts 269°
2026-04-26 10:53 37.41976 -5.91131 90 ft 30 kts 269°
2026-04-26 10:53 37.41964 -5.91273 91 ft 8 kts 243°
2026-04-26 10:53 37.41956 -5.91289 90 ft 0 kts 234°
2026-04-26 10:54 37.41905 -5.91310 89 ft 8 kts 172°
2026-04-26 10:54 37.41837 -5.91234 89 ft 16 kts 124°
2026-04-26 10:54 37.41789 -5.91130 91 ft 6 kts 90°
2026-04-26 10:54 37.41789 -5.91121 90 ft 0 kts 90°
2026-04-26 10:55 37.41789 -5.91073 91 ft 28 kts 90°
2026-04-26 10:55 37.41792 -5.90500 97 ft 100 kts 89°
2026-04-26 10:55 37.41794 -5.89793 98 ft 138 kts 89°
2026-04-26 10:56 37.41780 -5.87980 619 ft 163 kts 89°
2026-04-26 10:56 37.41749 -5.86528 1321 ft 168 kts 89°
2026-04-26 10:56 37.41724 -5.85052 2041 ft 172 kts 91°
2026-04-26 10:56 37.41690 -5.83454 2459 ft 194 kts 92°
2026-04-26 10:57 37.41723 -5.81644 2845 ft 220 kts 79°
2026-04-26 10:57 37.42133 -5.79678 3406 ft 242 kts 77°
2026-04-26 10:57 37.42542 -5.77582 4248 ft 251 kts 78°
2026-04-26 10:57 37.42790 -5.75393 5180 ft 255 kts 91°
2026-04-26 10:58 37.42758 -5.73151 6130 ft 258 kts 91°
2026-04-26 10:58 37.42732 -5.70868 7035 ft 263 kts 92°
2026-04-26 10:58 37.42709 -5.68546 7923 ft 267 kts 91°
2026-04-26 10:58 37.42686 -5.66199 8871 ft 269 kts 91°
2026-04-26 10:59 37.42663 -5.63840 9851 ft 270 kts 91°
2026-04-26 10:59 37.42642 -5.61439 10509 ft 283 kts 91°
2026-04-26 10:59 37.42618 -5.58859 10795 ft 307 kts 91°
2026-04-26 10:59 37.42592 -5.56111 11326 ft 319 kts 90°
2026-04-26 11:00 37.42564 -5.53288 12042 ft 326 kts 90°
2026-04-26 11:00 37.42534 -5.50419 12807 ft 331 kts 90°
2026-04-26 11:00 37.42505 -5.47507 13563 ft 335 kts 90°
2026-04-26 11:00 37.42475 -5.44552 14248 ft 341 kts 90°
2026-04-26 11:01 37.42444 -5.41549 14880 ft 346 kts 90°
2026-04-26 11:01 37.42265 -5.38512 15495 ft 352 kts 100°
2026-04-26 11:01 37.41480 -5.35574 16131 ft 359 kts 115°
2026-04-26 11:01 37.40077 -5.33006 17130 ft 351 kts 131°
2026-04-26 11:02 37.38319 -5.30916 18075 ft 351 kts 137°
2026-04-26 11:02 37.36491 -5.28835 18577 ft 358 kts 137°
2026-04-26 11:02 37.34622 -5.26712 19051 ft 365 kts 137°
2026-04-26 11:02 37.32715 -5.24553 19520 ft 372 kts 137°
2026-04-26 11:03 37.30776 -5.22360 20001 ft 378 kts 137°
2026-04-26 11:03 37.28802 -5.20130 20440 ft 386 kts 136°
2026-04-26 11:03 37.26786 -5.17856 20914 ft 392 kts 137°
2026-04-26 11:03 37.24740 -5.15552 21442 ft 397 kts 137°
2026-04-26 11:04 37.22702 -5.13256 21974 ft 401 kts 137°
2026-04-26 11:04 37.20589 -5.10878 22528 ft 405 kts 137°
2026-04-26 11:04 37.18508 -5.08538 23047 ft 409 kts 137°
2026-04-26 11:04 37.16379 -5.06144 23573 ft 413 kts 137°
2026-04-26 11:05 37.14229 -5.03733 23989 ft 417 kts 137°
2026-04-26 11:05 37.12054 -5.01297 24413 ft 421 kts 137°
2026-04-26 11:05 37.09835 -4.98814 24845 ft 424 kts 137°
2026-04-26 11:05 37.07635 -4.96340 25284 ft 426 kts 136°
2026-04-26 11:06 37.05645 -4.93594 25719 ft 427 kts 126°
2026-04-26 11:06 37.04543 -4.91562 25991 ft 427 kts 119°
2026-04-26 11:06 37.02676 -4.87158 26542 ft 430 kts 116°
2026-04-26 11:06 37.01285 -4.83836 26934 ft 432 kts 116°
2026-04-26 11:07 36.99878 -4.80501 27324 ft 435 kts 117°
2026-04-26 11:07 36.98461 -4.77150 27709 ft 437 kts 117°
2026-04-26 11:07 36.97040 -4.73785 28091 ft 439 kts 117°
2026-04-26 11:07 36.95611 -4.70398 28464 ft 441 kts 116°
2026-04-26 11:08 36.94173 -4.66993 28832 ft 444 kts 116°
2026-04-26 11:08 36.92728 -4.63575 29168 ft 446 kts 116°
2026-04-26 11:08 36.91275 -4.60138 29508 ft 448 kts 116°
2026-04-26 11:08 36.89813 -4.56686 29849 ft 450 kts 116°
2026-04-26 11:09 36.88348 -4.53227 30211 ft 451 kts 116°
2026-04-26 11:09 36.86876 -4.49758 30487 ft 453 kts 116°
2026-04-26 11:09 36.85896 -4.47456 30656 ft 454 kts 116°
2026-04-26 11:09 36.84627 -4.43851 30898 ft 454 kts 107°
2026-04-26 11:10 36.83882 -4.40026 31133 ft 454 kts 96°
2026-04-26 11:10 36.83694 -4.36097 31358 ft 454 kts 86°
2026-04-26 11:10 36.84070 -4.32200 31638 ft 452 kts 76°
2026-04-26 11:10 36.84980 -4.28454 31945 ft 450 kts 66°
2026-04-26 11:11 36.86329 -4.24933 32252 ft 450 kts 62°
2026-04-26 11:11 36.87742 -4.21453 32555 ft 450 kts 62°
2026-04-26 11:11 36.89150 -4.17967 32866 ft 450 kts 62°
2026-04-26 11:11 36.90556 -4.14472 33163 ft 450 kts 62°
2026-04-26 11:12 36.91956 -4.10982 33459 ft 450 kts 62°
2026-04-26 11:12 36.93356 -4.07492 33811 ft 448 kts 62°
2026-04-26 11:12 36.94754 -4.04014 34169 ft 447 kts 62°
2026-04-26 11:12 36.96150 -4.00542 34438 ft 447 kts 62°
2026-04-26 11:13 36.97547 -3.97068 34690 ft 447 kts 62°
2026-04-26 11:13 36.98944 -3.93594 34931 ft 448 kts 62°
2026-04-26 11:13 37.00342 -3.90110 35166 ft 448 kts 62°
2026-04-26 11:13 37.01738 -3.86619 35405 ft 449 kts 62°
2026-04-26 11:14 37.03132 -3.83121 35625 ft 449 kts 62°
2026-04-26 11:14 37.04527 -3.79622 35882 ft 449 kts 62°
2026-04-26 11:14 37.05919 -3.76128 36131 ft 448 kts 62°
2026-04-26 11:14 37.07309 -3.72635 36363 ft 449 kts 62°
2026-04-26 11:15 37.08702 -3.69135 36565 ft 449 kts 62°
2026-04-26 11:15 37.10098 -3.65630 36767 ft 450 kts 62°
2026-04-26 11:15 37.11496 -3.62120 36953 ft 450 kts 62°
2026-04-26 11:15 37.12894 -3.58604 37147 ft 451 kts 62°
2026-04-26 11:16 37.14289 -3.55080 37328 ft 452 kts 62°
2026-04-26 11:16 37.15685 -3.51550 37519 ft 452 kts 62°
2026-04-26 11:16 37.17082 -3.48019 37705 ft 453 kts 62°
2026-04-26 11:16 37.18481 -3.44484 37945 ft 452 kts 62°
2026-04-26 11:17 37.19860 -3.40996 38108 ft 453 kts 62°
2026-04-26 11:17 37.21276 -3.37403 38123 ft 454 kts 62°
2026-04-26 11:17 37.24065 -3.30286 38129 ft 455 kts 62°
2026-04-26 11:18 37.26837 -3.23214 38132 ft 454 kts 62°
2026-04-26 11:18 37.29627 -3.16097 38124 ft 455 kts 62°
2026-04-26 11:19 37.32416 -3.08973 38127 ft 454 kts 62°
2026-04-26 11:19 37.35197 -3.01838 38136 ft 455 kts 62°
2026-04-26 11:20 37.37527 -2.95850 38134 ft 455 kts 62°
2026-04-26 11:20 37.40759 -2.87526 38137 ft 456 kts 63°
2026-04-26 11:21 37.43553 -2.80298 38131 ft 456 kts 63°
2026-04-26 11:21 37.46321 -2.73117 38154 ft 456 kts 63°
2026-04-26 11:22 37.49066 -2.65981 38162 ft 456 kts 63°
2026-04-26 11:22 37.51833 -2.58805 38161 ft 456 kts 63°
2026-04-26 11:23 37.54597 -2.51621 38164 ft 456 kts 63°
2026-04-26 11:23 37.57345 -2.44427 38165 ft 456 kts 63°
2026-04-26 11:24 37.60088 -2.37220 38165 ft 456 kts 63°
2026-04-26 11:24 37.62829 -2.30014 38169 ft 456 kts 63°
2026-04-26 11:25 37.65571 -2.22805 38174 ft 456 kts 63°
2026-04-26 11:25 37.68309 -2.15596 38173 ft 456 kts 63°
2026-04-26 11:26 37.71043 -2.08379 38186 ft 455 kts 63°
2026-04-26 11:26 37.73766 -2.01167 38186 ft 454 kts 63°
2026-04-26 11:27 37.76479 -1.93966 38188 ft 453 kts 63°
2026-04-26 11:27 37.79181 -1.86770 38189 ft 453 kts 63°
2026-04-26 11:28 37.81881 -1.79572 38186 ft 453 kts 63°
2026-04-26 11:28 37.84574 -1.72372 38183 ft 453 kts 63°
2026-04-26 11:29 37.87260 -1.65168 38182 ft 453 kts 63°
2026-04-26 11:29 37.89940 -1.57962 38185 ft 453 kts 63°
2026-04-26 11:30 37.92168 -1.51966 38191 ft 452 kts 63°
2026-04-26 11:30 37.95295 -1.43535 38193 ft 452 kts 63°
2026-04-26 11:31 37.97954 -1.36330 38196 ft 451 kts 64°
2026-04-26 11:31 38.00607 -1.29129 38193 ft 451 kts 64°
2026-04-26 11:32 38.03256 -1.21931 38189 ft 450 kts 64°
2026-04-26 11:32 38.05897 -1.14731 38187 ft 450 kts 64°
2026-04-26 11:33 38.08530 -1.07532 38191 ft 450 kts 64°
2026-04-26 11:33 38.11161 -1.00331 38187 ft 449 kts 64°
2026-04-26 11:34 38.13781 -0.93133 38185 ft 449 kts 64°
2026-04-26 11:34 38.16395 -0.85929 38183 ft 449 kts 64°
2026-04-26 11:35 38.19004 -0.78722 38182 ft 449 kts 64°
2026-04-26 11:35 38.21168 -0.72737 38192 ft 448 kts 64°
2026-04-26 11:36 38.24198 -0.64334 38193 ft 447 kts 64°
2026-04-26 11:36 38.26781 -0.57150 38192 ft 446 kts 65°
2026-04-26 11:37 38.29219 -0.49893 38188 ft 446 kts 68°
2026-04-26 11:37 38.31505 -0.42560 38188 ft 446 kts 67°
2026-04-26 11:38 38.33788 -0.35224 38188 ft 445 kts 68°
2026-04-26 11:38 38.36103 -0.27901 38188 ft 445 kts 67°
2026-04-26 11:39 38.38501 -0.20624 38190 ft 445 kts 66°
2026-04-26 11:39 38.40952 -0.13372 38191 ft 445 kts 66°
2026-04-26 11:40 38.43390 -0.06116 38191 ft 445 kts 66°
2026-04-26 11:40 38.45793 0.01167 38199 ft 445 kts 67°
2026-04-26 11:42 38.55149 0.30439 38200 ft 445 kts 68°
2026-04-26 11:43 38.57469 0.37708 38200 ft 445 kts 68°
2026-04-26 11:43 38.59810 0.45096 38192 ft 446 kts 68°
2026-04-26 11:44 38.62139 0.52451 38188 ft 447 kts 68°
2026-04-26 11:44 38.64469 0.59828 38187 ft 447 kts 68°
2026-04-26 11:45 38.66688 0.67258 38194 ft 447 kts 74°
2026-04-26 11:45 38.67727 0.75037 38200 ft 447 kts 82°
2026-04-26 11:46 38.68600 0.82962 38196 ft 447 kts 82°
2026-04-26 11:46 38.69462 0.90790 38196 ft 447 kts 82°
2026-04-26 11:47 38.70329 0.98674 38193 ft 447 kts 82°
2026-04-26 11:47 38.71195 1.06560 38190 ft 447 kts 82°
2026-04-26 11:48 38.72031 1.14294 38164 ft 432 kts 82°
2026-04-26 11:48 38.72440 1.18101 38050 ft 432 kts 82°
2026-04-26 11:48 38.72848 1.21910 37672 ft 432 kts 83°
2026-04-26 11:49 38.73254 1.25716 37132 ft 431 kts 82°
2026-04-26 11:49 38.73658 1.29514 36604 ft 430 kts 83°
2026-04-26 11:49 38.74061 1.33301 36091 ft 429 kts 83°
2026-04-26 11:49 38.74463 1.37091 35586 ft 429 kts 84°
2026-04-26 11:50 38.74862 1.40876 35093 ft 429 kts 84°
2026-04-26 11:50 38.75259 1.44660 34606 ft 429 kts 84°
2026-04-26 11:50 38.75654 1.48439 34124 ft 428 kts 84°
2026-04-26 11:50 38.76050 1.52228 33578 ft 429 kts 84°
2026-04-26 11:51 38.76448 1.56015 33036 ft 431 kts 83°
2026-04-26 11:51 38.76848 1.59826 32509 ft 432 kts 83°
2026-04-26 11:51 38.77248 1.63647 31983 ft 432 kts 83°
2026-04-26 11:51 38.77643 1.67456 31484 ft 430 kts 83°
2026-04-26 11:52 38.78029 1.71240 30991 ft 427 kts 84°
2026-04-26 11:52 38.78288 1.73780 30655 ft 425 kts 84°
2026-04-26 11:52 38.78792 1.78727 29985 ft 420 kts 83°
2026-04-26 11:52 38.79168 1.82422 29425 ft 417 kts 83°
2026-04-26 11:53 38.79542 1.86086 28879 ft 412 kts 83°
2026-04-26 11:53 38.80057 1.89685 28341 ft 409 kts 75°
2026-04-26 11:53 38.80672 1.92016 27977 ft 408 kts 69°
2026-04-26 11:54 38.83656 1.98125 26938 ft 404 kts 53°
2026-04-26 11:54 38.85389 2.00958 26304 ft 403 kts 53°
2026-04-26 11:54 38.87112 2.03797 25697 ft 402 kts 53°
2026-04-26 11:54 38.88822 2.06634 25086 ft 401 kts 53°
2026-04-26 11:55 38.90525 2.09460 24497 ft 400 kts 53°
2026-04-26 11:55 38.92225 2.12276 23926 ft 398 kts 53°
2026-04-26 11:55 38.93917 2.15083 23281 ft 397 kts 53°
2026-04-26 11:55 38.95598 2.17869 22603 ft 390 kts 53°
2026-04-26 11:56 38.97231 2.20574 21950 ft 376 kts 54°
2026-04-26 11:56 38.98808 2.23189 21305 ft 364 kts 54°
2026-04-26 11:56 39.00333 2.25720 20683 ft 353 kts 54°
2026-04-26 11:56 39.01818 2.28187 20078 ft 345 kts 54°
2026-04-26 11:57 39.03279 2.30617 19471 ft 342 kts 54°
2026-04-26 11:57 39.04717 2.33012 18884 ft 334 kts 55°
2026-04-26 11:57 39.06120 2.35349 18284 ft 327 kts 55°
2026-04-26 11:57 39.07496 2.37643 17624 ft 321 kts 55°
2026-04-26 11:58 39.08850 2.39905 16977 ft 317 kts 55°
2026-04-26 11:58 39.10187 2.42145 16336 ft 314 kts 54°
2026-04-26 11:58 39.11508 2.44361 15714 ft 310 kts 54°
2026-04-26 11:58 39.12817 2.46557 15106 ft 308 kts 54°
2026-04-26 11:59 39.14126 2.48752 14612 ft 311 kts 54°
2026-04-26 11:59 39.15482 2.50932 14133 ft 314 kts 48°
2026-04-26 11:59 39.17108 2.52758 13629 ft 307 kts 36°
2026-04-26 11:59 39.18872 2.54278 13104 ft 303 kts 35°
2026-04-26 12:00 39.20614 2.55784 12588 ft 300 kts 36°
2026-04-26 12:00 39.22335 2.57282 12083 ft 298 kts 36°
2026-04-26 12:00 39.24043 2.58774 11588 ft 295 kts 36°
2026-04-26 12:00 39.25736 2.60256 11091 ft 293 kts 36°
2026-04-26 12:01 39.27420 2.61728 10713 ft 292 kts 36°
2026-04-26 12:01 39.29099 2.63195 10403 ft 289 kts 36°
2026-04-26 12:01 39.30763 2.64651 10184 ft 289 kts 36°
2026-04-26 12:01 39.32421 2.66103 9919 ft 288 kts 35°
2026-04-26 12:02 39.34079 2.67552 9666 ft 287 kts 35°
2026-04-26 12:02 39.35730 2.68997 9405 ft 286 kts 36°
2026-04-26 12:02 39.37365 2.70432 9141 ft 281 kts 36°
2026-04-26 12:02 39.38963 2.71830 8890 ft 274 kts 36°
2026-04-26 12:03 39.40523 2.73194 8636 ft 267 kts 35°
2026-04-26 12:03 39.42041 2.74530 8384 ft 260 kts 37°
2026-04-26 12:03 39.43362 2.76069 8134 ft 252 kts 51°
2026-04-26 12:03 39.44348 2.77902 7885 ft 245 kts 63°
2026-04-26 12:04 39.45110 2.79851 7635 ft 241 kts 64°
2026-04-26 12:04 39.45868 2.81780 7384 ft 240 kts 64°
2026-04-26 12:04 39.46622 2.83694 7148 ft 238 kts 64°
2026-04-26 12:04 39.47374 2.85601 6909 ft 237 kts 64°
2026-04-26 12:05 39.48122 2.87496 6672 ft 236 kts 64°
2026-04-26 12:05 39.48865 2.89382 6426 ft 235 kts 64°
2026-04-26 12:05 39.49605 2.91264 6190 ft 234 kts 64°
2026-04-26 12:05 39.50343 2.93138 5877 ft 233 kts 64°
2026-04-26 12:06 39.51079 2.95005 5555 ft 232 kts 64°
2026-04-26 12:06 39.51811 2.96864 5230 ft 231 kts 64°
2026-04-26 12:06 39.52539 2.98713 4907 ft 230 kts 64°
2026-04-26 12:06 39.53262 3.00557 4579 ft 229 kts 64°
2026-04-26 12:07 39.53982 3.02394 4247 ft 228 kts 64°
2026-04-26 12:07 39.54801 3.04145 3915 ft 229 kts 46°
2026-04-26 12:07 39.56189 3.05110 3589 ft 232 kts 12°
2026-04-26 12:07 39.57780 3.04929 3267 ft 234 kts 338°
2026-04-26 12:08 39.59159 3.03816 2941 ft 235 kts 324°
2026-04-26 12:08 39.60448 3.02507 2621 ft 235 kts 320°
2026-04-26 12:08 39.61651 3.01134 2510 ft 222 kts 317°
2026-04-26 12:08 39.62697 2.99803 2523 ft 199 kts 314°
2026-04-26 12:09 39.63547 2.98535 2527 ft 177 kts 303°
2026-04-26 12:09 39.64026 2.97155 2519 ft 160 kts 283°
2026-04-26 12:09 39.64126 2.95772 2521 ft 151 kts 266°
2026-04-26 12:09 39.63973 2.94444 2516 ft 147 kts 248°
2026-04-26 12:10 39.63510 2.93269 2529 ft 146 kts 240°
2026-04-26 12:10 39.63016 2.92122 2528 ft 146 kts 238°
2026-04-26 12:10 39.62506 2.90991 2503 ft 145 kts 237°
2026-04-26 12:10 39.61984 2.89860 2371 ft 146 kts 238°
2026-04-26 12:11 39.61468 2.88754 2217 ft 145 kts 236°
2026-04-26 12:11 39.60947 2.87642 2031 ft 144 kts 235°
2026-04-26 12:11 39.60426 2.86534 1852 ft 144 kts 237°
2026-04-26 12:11 39.59906 2.85430 1668 ft 143 kts 237°
2026-04-26 12:12 39.59356 2.84264 1462 ft 159 kts 236°
2026-04-26 12:12 39.58761 2.83000 1250 ft 163 kts 236°
2026-04-26 12:12 39.58185 2.81777 1032 ft 160 kts 236°
2026-04-26 12:12 39.57796 2.80950 874 ft 156 kts 237°
2026-04-26 12:13 39.57098 2.79469 618 ft 138 kts 238°
2026-04-26 12:13 39.56611 2.78437 452 ft 130 kts 238°
2026-04-26 12:13 39.56140 2.77441 290 ft 129 kts 238°
2026-04-26 12:13 39.55680 2.76458 129 ft 127 kts 239°
2026-04-26 12:14 39.55235 2.75516 31 ft 110 kts 238°
2026-04-26 12:14 39.54925 2.74857 30 ft 64 kts 239°
2026-04-26 12:14 39.54806 2.74473 30 ft 38 kts 265°
2026-04-26 12:14 39.54802 2.74227 30 ft 14 kts 269°
2026-04-26 12:15 39.54807 2.74148 30 ft 5 kts 305°
2026-04-26 12:15 39.54888 2.74081 30 ft 19 kts 327°
2026-04-26 12:15 39.54930 2.73969 30 ft 16 kts 217°
2026-04-26 12:15 39.54827 2.73996 30 ft 16 kts 195°
2026-04-26 12:16 39.54757 2.73876 30 ft 18 kts 240°
2026-04-26 12:16 39.54691 2.73736 30 ft 17 kts 237°
2026-04-26 12:16 39.54677 2.73607 30 ft 14 kts 327°
2026-04-26 12:16 39.54710 2.73654 30 ft 1 kts 57°
2026-04-26 12:17 39.54716 2.73666 30 ft 4 kts 59°
2026-04-26 12:17 39.54719 2.73673 30 ft 0 kts 59°